Miscellaneous Local Product
Issued by NWS North Platte, NE

Home | Current Version | Previous Version | Text Only | Print | Product List | Glossary On
Versions: 1 2 3 4 5 6 7 8 9 10 11 12 13 14 15 16 17 18 19 20 21 22 23 24 25 26 27 28 29 30 31 32 33 34 35 36 37 38 39 40 41 42 43 44 45 46 47 48 49 50
000
AXUS43 KLBF 312010
MISLBF


WESTERN AND NORTH CENTRAL NEBRASKA HOURLY WEATHER ROUNDUP
NATIONAL WEATHER SERVICE NORTH PLATTE NE
300 PM CDT FRI JUL 31 2015

***STATIONS NOT REPORTING VARIABLES SUCH AS SKY/WEATHER OR
PRESSURE ARE PROVIDED BY THE NEBRASKA DEPARTMENT OF
ROADS...RAWS...AND APRS NETWORKS...AND ARE NOT UNDER
NATIONAL WEATHER SERVICE QUALITY CONTROL***

...OBSERVATIONS IN AND NEAR THE EASTERN PANHANDLE OF NEBRASKA...

CITY           SKY/WX    TMP DP  RH WIND       PRES   REMARKS
PINE RIDGE     SUNNY     92  48  22 NE9       30.18F
CHADRON        SUNNY     94  52  24 E10       30.15F HX  91
ALLIANCE       MOSUNNY   91  51  25 SE9G16    30.20F
SIDNEY         SUNNY     91  49  23 E8        30.24F
BIG SPRINGS      N/A     89  58  35 E7          N/A
$$

...OBSERVATIONS IN NORTH CENTRAL NEBRASKA...

CITY           SKY/WX    TMP DP  RH WIND       PRES   REMARKS
VALENTINE      SUNNY     94  49  21 N10       30.14F HX  90
THEDFORD       SUNNY     93  56  28 W5        30.16F HX  91
AINSWORTH      MOSUNNY   89  60  36 E6        30.15F
O`NEILL        SUNNY     90  64  41 N5        30.12F HX  91
BROKEN BOW     MOSUNNY   91  62  37 SW6       30.14F HX  91
SPRINGVIEW       N/A     90  62  38 N5G12       N/A  HX  90
CHAMBERS         N/A     93  64  38 N3          N/A  HX  94
EWING            N/A     90  73  56 NE3         N/A  HX  97
$$

...OBSERVATIONS IN SOUTHWEST NEBRASKA AND FAR NORTHEAST COLORADO...

CITY           SKY/WX    TMP DP  RH WIND       PRES   REMARKS
WRAY           FAIR      92  50  23 E6        30.21F
IMPERIAL       SUNNY     90  56  31 VRB5      30.19F
OGALLALA       SUNNY     88  61  39 SE8       30.19F
NORTH PLATTE   SUNNY     91  63  39 E5        30.15F HX  92
MCCOOK         SUNNY     93  61  34 S8        30.15F HX  93
LEXINGTON      SUNNY     92  62  37 S8        30.15F HX  92
PAXTON           N/A     90  63  40 S5          N/A  HX  91
BRADY            N/A     90  71  52 CALM        N/A  HX  96
CALLAWAY         N/A     90  73  57 S3          N/A  HX  98
$$

...NORTH PLATTE AREA...

CITY           SKY/WX    TMP DP  RH WIND       PRES   REMARKS
AIRPORT        SUNNY     91  63  39 E5        30.15F HX  92
DOWNTOWN         N/A     93  60  32 S3          N/A  HX  92
HILLCREST        N/A     92  60  34 SW8         N/A  HX  91
$$

...SOME WEATHER OBSERVATIONS FROM AROUND THE REGION...

CITY           SKY/WX    TMP DP  RH WIND       PRES   REMARKS
DENVER         MOSUNNY   89  43  20 SW8       30.28F
LARAMIE        MOSUNNY   79  44  28 E18       30.40S
CHEYENNE       PTSUNNY   71  49  45 NW9G18    30.37R
SCOTTSBLUFF    SUNNY     90  62  39 E12       30.20F HX  90
RAPID CITY     SUNNY     86  54  33 E8        30.19F
PIERRE         SUNNY     90  50  25 VRB5      30.10F
WINNER         FAIR      92  57  30 VRB6      30.12F HX  90
SIOUX FALLS    MOSUNNY   86  54  33 VRB3      30.11F
OMAHA          MOSUNNY   91  73  55 NW7       30.07F HX  99
GRAND ISLAND   MOSUNNY   92  67  43 S13       30.12F HX  95
KANSAS CITY    MOSUNNY   87  67  51 W5        30.12F HX  90
WICHITA        PTSUNNY   89  69  51 VRB5      30.13F HX  93
HAYS           MOSUNNY   90  64  43 S13       30.15F HX  91
LIBERAL        CLOUDY    79  64  61 E9        30.20F
GOODLAND       MOSUNNY   87  62  43 SW12      30.22F
$$



USA.gov is the U.S. government's official web portal to all federal, state and local government web resources and services.